Theta_e
351 348 344 341 337 334 334 334 332 331 330 328 329 332 331 328 327 332 336 337 337 337 336 328 333 324 327 331 332 330 331 331 328 328 328 335 339 341 340 332 334 338 340
347 348 344 341 337 335 334 335 332 331 330 328 331 331 327 326 331 333 335 335 335 337 335 325 326 324 330 333 334 336 339 342 344 341 333 328 334 335 329 327 329 332 332
346 347 345 342 340 336 334 335 334 332 331 329 332 329 327 326 330 333 334 334 338 337 329 324 324 324 330 333 333 334 336 338 341 346 347 336 331 329 327 326 327 330 333
345 346 346 344 343 341 335 336 336 332 332 330 331 330 329 332 332 332 333 336 337 336 326 325 324 325 328 331 334 337 339 341 341 342 345 347 338 332 334 332 336 335 329
345 345 345 345 344 344 339 336 337 333 333 332 331 332 334 336 334 336 339 338 332 328 326 326 326 327 330 333 338 338 338 338 338 341 342 346 340 333 335 334 332 330 329
344 344 343 343 343 343 343 337 338 334 333 333 332 332 333 336 340 341 340 331 325 320 324 327 328 328 329 333 338 336 336 336 337 340 342 343 341 338 333 331 331 329 329
345 344 343 342 342 342 344 339 339 337 333 334 334 332 332 334 339 341 337 328 325 321 324 329 328 330 333 337 337 335 334 335 336 338 342 343 343 341 335 333 331 331 330
345 345 345 343 341 342 344 341 340 340 333 335 335 334 333 334 336 337 334 329 327 321 324 329 330 329 330 332 334 334 333 332 334 333 336 344 345 340 335 335 334 333 332
347 346 345 343 342 343 344 342 342 341 334 335 336 336 335 334 335 335 332 329 328 324 324 326 330 330 329 328 328 327 326 326 327 328 328 336 342 339 336 334 334 335 335
347 346 345 344 345 345 344 343 344 343 337 335 337 337 336 335 334 334 330 329 329 326 323 324 326 328 328 328 327 327 325 325 323 322 323 329 332 338 336 333 330 332 335
350 345 343 345 348 347 345 345 345 344 340 337 339 340 337 335 333 333 329 328 329 327 324 322 322 324 324 325 324 324 324 323 325 326 323 329 330 331 336 332 327 326 330
350 348 345 346 348 346 347 347 346 345 342 340 340 341 338 334 331 332 330 328 329 329 327 324 322 321 320 319 319 318 320 328 329 330 327 327 327 328 336 331 326 327 326
348 345 347 346 344 345 349 350 347 346 344 343 342 340 336 333 332 332 331 329 330 334 334 329 324 322 321 322 323 324 330 335 334 334 333 333 332 330 333 327 327 327 326
347 346 342 341 341 344 344 343 344 343 342 341 340 338 335 332 331 332 331 335 340 340 339 336 327 324 330 336 332 333 333 335 336 335 333 334 333 332 329 330 332 331 329
345 345 345 341 340 343 341 340 341 340 339 336 335 333 330 330 331 339 341 341 341 341 341 340 332 331 334 338 338 336 338 340 342 344 341 341 343 339 338 338 337 337 338
341 345 345 344 342 341 342 337 335 333 330 329 328 328 329 327 332 339 343 344 341 340 340 342 341 338 339 340 341 341 344 346 347 346 346 346 344 345 345 345 343 343 343
342 343 345 346 343 343 343 342 335 332 330 329 327 329 329 330 331 339 342 345 341 343 349 346 344 343 346 347 346 346 346 345 345 345 340 344 345 344 345 345 345 344 344
342 344 341 344 345 348 347 345 342 336 338 337 338 337 337 337 335 337 341 348 344 347 349 349 348 347 346 342 343 347 348 345 346 345 340 340 340 342 344 344 344 342 342
343 342 340 346 347 349 352 352 346 343 343 345 344 345 346 347 345 336 342 352 352 352 351 348 347 345 336 335 342 346 343 342 343 341 337 335 335 336 332 333 342 342 340
344 341 340 336 345 347 349 350 352 352 346 346 346 346 347 346 348 345 348 351 350 350 350 349 347 345 337 331 342 344 343 340 337 336 336 332 332 330 331 331 333 334 333
338 340 341 344 336 338 345 347 349 351 352 355 351 351 351 351 349 349 350 351 349 347 348 348 346 342 342 340 344 341 340 339 335 337 331 333 332 329 331 332 334 333 331
336 337 338 339 335 340 338 342 347 350 352 350 352 353 353 352 353 350 350 349 349 347 347 347 344 344 346 345 339 336 331 331 331 331 332 330 329 331 325 326 326 327 329
336 334 335 336 336 333 334 341 336 346 352 350 350 352 354 353 353 353 352 350 348 347 346 345 345 346 344 341 339 334 327 328 327 332 330 328 329 325 327 327 327 326 329
334 335 335 336 336 336 334 343 347 353 354 355 355 354 356 353 353 353 353 350 348 348 347 344 345 346 345 337 336 334 333 330 331 326 327 327 328 324 323 324 321 327 326
329 335 335 335 335 336 335 344 350 355 353 352 355 354 355 354 352 352 352 351 348 347 346 343 340 341 339 336 335 331 332 332 330 323 322 323 323 321 323 320 320 320 324
330 331 334 334 337 345 350 346 354 352 349 347 349 348 349 351 351 349 349 350 346 348 346 342 340 340 338 336 333 332 331 327 321 324 319 319 320 320 320 318 318 316 318
Wind_Speed
26 30 29 28 27 26 25 23 22 21 20 20 22 23 24 25 27 26 24 22 20 17 16 16 15 15 16 17 17 16 17 18 18 17 15 14 14 16 14 13 13 14 13
35 30 28 28 28 28 26 24 23 21 20 21 22 23 24 25 25 23 21 19 18 16 15 14 14 15 16 16 15 15 15 14 14 14 14 12 11 10 9 11 13 13 12
37 34 31 28 27 27 27 25 23 22 20 20 21 22 22 23 23 21 19 17 16 15 14 14 14 14 15 14 13 13 12 12 11 9 7 7 9 9 9 10 11 11 11
39 35 32 29 28 27 27 26 24 23 21 20 21 22 22 21 21 19 18 16 14 13 12 13 13 13 13 12 11 10 9 9 9 7 2 2 5 8 9 9 9 8 9
38 35 33 29 28 27 26 26 25 24 22 21 21 21 21 20 19 18 16 14 12 12 12 12 11 11 11 10 9 8 7 7 8 9 6 6 7 7 6 7 7 7 6
41 35 32 30 28 27 27 27 25 25 24 22 21 21 21 20 19 17 14 12 11 12 12 11 10 9 8 7 7 6 5 5 7 10 3 8 10 6 5 4 5 5 5
43 37 34 33 30 28 28 28 27 25 24 23 22 22 21 20 18 15 13 11 10 10 11 10 9 8 7 6 6 4 3 2 4 8 6 6 8 2 1 3 3 4 4
45 40 34 32 31 30 29 29 27 25 24 22 21 21 21 20 18 15 13 10 9 9 9 9 7 6 6 5 5 3 2 1 1 3 4 6 8 6 2 2 2 2 3
40 38 34 31 29 29 30 28 27 24 23 22 19 18 18 18 17 15 12 10 8 8 8 7 7 6 5 5 4 3 3 3 3 2 3 2 9 9 6 4 4 3 3
36 36 33 30 29 29 30 28 27 25 24 22 20 18 17 17 17 15 12 10 8 7 7 7 7 7 6 6 5 5 5 6 6 5 6 5 6 9 11 9 6 6 5
31 36 35 32 30 30 29 29 28 27 24 23 20 18 17 18 17 15 13 10 8 7 6 6 7 7 7 8 7 7 8 9 10 9 8 8 10 12 15 13 9 8 9
21 29 32 30 30 30 29 29 28 26 24 23 22 20 18 18 18 16 13 11 9 7 7 7 8 8 9 9 8 9 10 11 12 11 9 10 13 16 17 14 10 11 12
30 32 27 25 24 26 26 24 26 26 25 24 23 21 19 18 17 16 13 13 11 10 10 10 10 10 9 9 8 7 6 9 7 8 9 10 10 8 14 12 13 14 14
10 17 33 27 25 26 27 28 27 27 25 24 23 21 20 20 19 16 15 14 12 11 12 13 13 11 10 9 9 7 8 9 11 13 11 12 12 7 10 14 18 18 17
12 6 14 25 27 24 24 24 25 24 24 24 22 21 21 21 21 18 15 16 14 13 12 12 13 12 13 13 12 12 13 11 11 15 14 14 14 13 16 19 20 21 21
16 9 4 8 23 26 23 25 26 25 25 24 23 23 21 22 21 19 16 20 18 14 14 16 15 14 14 16 16 15 13 12 14 17 16 18 18 19 21 22 23 21 22
6 17 4 10 9 21 24 24 27 26 26 25 25 24 24 23 24 22 17 19 19 15 15 16 15 16 11 6 10 13 15 15 15 15 15 14 16 20 24 27 27 26 25
29 24 13 2 9 10 18 26 25 26 26 25 26 26 25 23 22 24 22 17 21 18 17 16 13 16 16 14 6 8 12 11 10 11 11 11 13 15 17 21 24 22 23
32 24 25 19 14 12 11 16 28 28 29 29 30 28 27 25 23 28 26 17 18 13 16 16 14 19 16 19 6 4 8 8 7 5 8 9 10 11 12 14 16 17 19
33 43 35 40 36 26 22 21 18 26 31 34 36 31 31 32 30 29 27 25 21 17 15 14 16 17 17 14 8 13 13 7 4 4 3 9 8 12 13 13 16 18 22
29 30 42 49 54 36 33 33 25 30 29 27 30 27 29 31 35 34 34 29 22 20 20 19 16 14 13 11 8 12 15 14 11 2 4 6 8 8 12 15 14 17 14
29 30 36 52 53 40 32 28 23 26 36 33 29 25 26 30 32 37 34 28 23 20 18 15 16 15 17 14 7 2 3 4 2 2 1 4 4 5 12 14 13 15 14
26 35 41 44 51 40 42 28 26 35 39 35 33 30 31 30 30 33 29 25 21 20 22 20 21 24 17 14 12 6 1 4 2 2 4 1 2 7 10 12 15 15 15
35 35 37 33 42 46 32 38 27 25 28 33 26 34 36 31 30 32 30 23 21 19 21 23 21 23 20 16 11 12 10 5 3 3 3 1 2 5 8 8 12 13 12
34 39 42 41 41 44 37 37 36 35 38 31 28 26 38 35 32 31 29 24 21 21 23 22 19 28 23 14 14 8 10 9 8 3 3 5 7 6 5 8 10 10 9
25 34 41 42 38 31 38 35 36 36 25 14 9 16 21 26 29 27 28 26 24 24 26 24 22 24 21 17 15 15 13 6 7 5 2 6 6 10 6 9 11 13 9
Wind_Direction
167 160 160 152 147 142 140 137 134 133 130 130 130 129 130 131 132 132 131 130 128 122 117 118 120 116 114 109 108 106 102 96 92 87 87 90 87 84 100 86 89 90 89
163 164 163 157 153 148 146 143 140 138 135 135 135 134 134 135 136 134 132 131 129 125 121 121 123 124 122 118 113 108 103 98 93 84 76 80 92 93 87 90 92 91 90
164 165 166 162 157 153 152 149 146 144 141 140 139 138 139 140 140 137 135 133 130 126 125 126 127 128 128 123 116 110 102 96 88 82 81 79 88 93 86 90 95 92 91
164 166 168 167 163 160 159 156 153 152 149 146 146 146 145 145 143 141 140 139 136 131 130 131 131 133 135 129 122 115 103 89 73 58 68 141 108 102 91 88 98 92 94
164 167 169 171 169 165 165 162 161 159 157 152 153 153 152 151 149 147 145 144 143 139 140 136 136 139 138 133 128 124 111 90 61 42 11 184 168 108 98 97 100 99 98
165 169 170 173 174 172 170 170 168 165 164 160 158 161 160 159 156 153 153 149 147 146 146 143 142 143 144 136 132 135 124 85 54 50 46 168 174 111 99 98 96 100 108
165 171 174 177 177 176 175 175 173 171 170 169 165 166 168 168 166 163 158 153 150 152 152 151 148 150 147 145 145 144 144 76 56 51 52 174 190 143 128 115 107 118 129
164 173 177 181 179 177 178 177 177 175 177 176 173 170 172 174 174 171 164 159 159 161 161 159 158 161 163 169 177 182 210 242 260 24 55 192 214 223 202 166 159 148 178
168 171 177 180 181 179 178 178 179 178 181 181 180 177 177 179 178 177 171 169 169 169 173 173 178 184 192 202 216 229 247 254 270 281 292 202 228 241 235 224 225 220 224
168 176 177 180 180 180 178 179 181 182 184 186 185 183 183 184 184 182 181 181 179 180 187 192 200 208 219 230 239 256 268 273 273 271 273 257 271 248 244 249 252 251 239
171 181 181 180 180 180 181 182 184 185 186 187 190 189 188 190 189 190 191 192 195 198 202 212 222 228 237 246 255 264 272 280 294 298 271 267 282 278 254 250 261 274 261
168 183 187 183 182 180 183 185 188 186 188 191 194 194 195 197 196 197 198 202 209 216 224 233 239 244 251 261 270 272 274 296 301 310 305 303 297 292 247 253 275 289 283
179 185 192 190 189 182 185 187 190 192 192 197 199 199 198 200 201 203 209 211 216 228 240 245 248 252 261 271 275 263 270 318 312 323 326 327 332 283 240 259 288 295 294
161 174 187 194 194 193 197 197 195 199 200 202 203 202 202 201 202 204 212 214 222 234 248 254 254 257 254 255 261 271 270 285 291 296 294 296 299 292 252 275 294 295 295
69 138 187 201 203 203 208 201 204 208 207 207 208 208 207 208 206 204 213 221 231 240 254 264 256 260 260 265 271 271 269 277 290 291 287 288 294 294 290 295 293 290 292
39 38 173 201 216 209 217 212 211 213 214 213 212 212 207 211 213 211 225 231 233 241 261 260 257 261 266 267 265 258 277 285 282 278 287 281 284 287 284 280 284 288 289
162 68 91 359 238 224 221 223 218 219 220 217 217 218 213 210 212 217 226 230 230 239 252 252 257 245 252 254 243 261 275 282 292 293 316 314 296 288 284 277 280 283 287
221 234 288 66 300 243 224 231 228 227 224 224 222 219 218 217 216 218 225 231 232 231 236 233 226 227 225 251 279 332 297 290 297 311 327 323 315 305 298 287 281 283 287
213 182 185 169 211 231 226 229 234 230 224 223 224 220 221 218 215 214 220 225 220 229 234 224 225 252 262 253 255 306 280 287 299 340 16 18 0 342 342 326 297 286 283
188 179 158 182 204 210 208 210 243 251 238 234 232 229 231 227 223 220 221 223 222 230 235 237 253 264 270 251 285 287 275 276 325 351 27 19 10 352 344 313 318 304 292
179 182 185 178 194 199 204 215 225 243 229 226 225 229 235 240 232 224 222 221 222 232 239 249 255 242 242 243 268 274 275 289 291 194 11 9 353 351 353 348 335 334 308
193 178 178 181 184 203 213 223 221 249 242 224 228 233 237 242 237 228 225 225 226 231 234 234 227 227 230 206 208 168 338 334 211 244 352 0 352 338 335 340 330 331 326
188 193 198 193 189 199 212 208 212 233 250 233 234 236 239 230 231 229 229 233 239 229 223 226 231 227 202 203 207 174 98 230 311 159 140 77 307 338 340 327 332 332 325
202 193 205 212 205 209 217 205 217 228 236 236 230 232 236 230 232 232 230 239 233 229 221 222 238 242 229 194 196 217 230 208 171 319 225 210 192 338 330 360 358 2 13
206 196 192 201 200 215 213 214 219 223 231 240 232 239 240 239 237 235 229 232 237 234 230 235 226 235 222 218 199 188 214 210 207 147 248 284 292 304 278 333 345 350 6
185 189 190 203 216 224 219 224 225 227 226 223 218 237 240 237 235 237 237 230 233 231 229 229 229 225 222 223 222 217 212 198 192 171 182 252 259 297 257 300 302 318 334